Estación municipal de Susqueda - St. Martí Sacalm (La Selva, )

Consulta los datos en tiempo real de la estación municipal de Susqueda - St. Martí Sacalm





Hora UTC 03:30
Temperatura 18.4 ºC
Humedad 92.9 %
Presión 1022.6 hPa
Pluja 0.0 mm
Velocidad viento 5.4 km/h
Dirección viento SSW
Radiación solar 0.1 W/m²

Datos diarios 2026-09-01



Hora UTC (invierno +1h; verano +2h)
Temperatura (ºC) Humedad (%) Presión (hPa) Velocidad viento (km/h) Precipitación (mm) Radiación solar (W/m²)
Hora UTC Aire Humedad Presión Vel. Dir. Vel. Max Dir. Intent. máx 5 min. Rad. Sol.
00:05 18.7 94.2 1023.4 0.0 NNE 0.0 WSW 0.0 0.1
00:10 18.7 93.6 1023.4 0.0 NNE 0.0 WSW 0.0 0.1
00:15 18.7 93.1 1023.4 0.0 NNE 0.0 NW 0.0 0.1
00:20 18.6 92.7 1023.3 0.3 ENE 3.5 ENE 0.0 0.1
00:25 18.5 93.3 1023.2 2.5 NE 4.2 NE 0.0 0.1
00:30 18.5 93.8 1023.2 0.0 NNE 0.0 NNE 0.0 0.1
00:35 18.6 93.0 1023.2 1.2 NNE 4.2 NNE 0.0 0.1
00:40 18.6 91.9 1023.2 1.2 NNE 3.2 NNE 0.0 0.1
00:45 18.6 90.6 1023.2 0.0 NNE 0.0 NNE 0.0 0.1
00:50 18.6 90.3 1023.2 0.0 NNE 0.0 ENE 0.0 0.1
00:55 18.6 89.5 1023.2 0.0 NNE 0.0 NNE 0.0 0.1
01:00 18.9 88.3 1023.1 0.0 NNE 0.0 N 0.0 0.1
01:05 19.0 88.2 1023.1 0.0 NNE 0.0 NNE 0.0 0.1
01:10 19.0 88.3 1023.1 0.0 NNE 0.0 ENE 0.0 0.1
01:15 19.0 87.8 1023.1 0.0 NNE 0.0 NE 0.0 0.1
01:20 19.0 87.0 1023.1 0.0 NNE 0.0 NE 0.0 0.1
01:25 19.0 87.4 1023.1 0.2 SSW 5.7 SW 0.0 0.1
01:30 18.9 88.8 1023.1 4.6 SSW 6.4 SSW 0.0 0.1
01:35 18.7 89.9 1023.1 4.2 SSW 5.7 SSW 0.0 0.1
01:40 18.6 91.0 1023.2 4.2 SW 5.7 SW 0.0 0.1
01:45 18.5 91.6 1023.2 4.7 SW 5.7 SW 0.0 0.1
01:50 18.4 92.2 1023.1 5.1 SW 6.4 SW 0.0 0.1
01:55 18.4 92.7 1023.1 4.7 SW 6.4 SW 0.0 0.1
02:00 18.4 92.7 1023.1 3.4 SSW 6.7 SSW 0.0 0.1
02:05 18.4 92.4 1023.0 3.8 SSW 6.7 SSW 0.0 0.1
02:10 18.5 92.3 1023.0 3.5 SW 6.0 SW 0.0 0.1
02:15 18.5 92.3 1023.0 4.8 SW 6.4 SW 0.0 0.1
02:20 18.5 92.6 1023.0 4.2 SW 5.7 WSW 0.0 0.1
02:25 18.5 92.8 1022.9 5.0 SW 6.7 SW 0.0 0.1
02:30 18.4 93.0 1022.9 6.1 SW 8.5 SW 0.0 0.1
02:35 18.4 93.5 1022.8 7.4 SW 9.5 SW 0.0 0.1
02:40 18.4 93.4 1022.8 8.1 SW 10.6 SW 0.0 0.1
02:45 18.4 93.2 1022.8 7.9 SW 11.3 SW 0.0 0.1
02:50 18.3 93.0 1022.8 7.7 SW 11.0 WSW 0.0 0.1
02:55 18.3 92.9 1022.7 7.3 SW 10.6 SW 0.0 0.2
03:00 18.3 93.3 1022.7 7.5 WSW 10.3 SW 0.0 0.1
03:05 18.3 93.5 1022.7 5.7 WSW 8.1 WSW 0.0 0.1
03:10 18.4 93.3 1022.7 7.2 SW 9.2 WSW 0.0 0.1
03:15 18.4 93.2 1022.6 4.9 SW 6.4 SW 0.0 0.1
03:20 18.4 93.2 1022.6 3.7 SSW 5.0 SSW 0.0 0.1
03:25 18.4 93.1 1022.6 3.6 SSW 5.7 SSW 0.0 0.1
03:30 18.4 92.9 1022.6 5.4 SSW 7.1 SW 0.0 0.1
Máxima 19.0 94.2 1023.4 8.1 SW 11.3 SW 0.0 0.2
Mínima 18.3 87.0 1022.6
Total 0.0